Salt Lake City, UT

8:14 PM MDT on May 27, 2017 (GMT -0600)
Salt Lake City International

Weather History for KSLC - August, 2013

Change the Weather History Date:

Monday, August 19, 2013

  Actual Average Record
Temperature  
Mean Temperature 84 °F 77 °F  
Max Temperature 96 °F 90 °F 99 °F (1961)
Min Temperature 72 °F 63 °F 47 °F (1978)
Degree Days  
Heating Degree Days 0 0  
Month to date heating degree days 0 0  
Since 1 June heating degree days 4 48  
Since 1 July heating degree days 0 2  
Cooling Degree Days 19 12  
Month to date cooling degree days 365 256  
Year to date cooling degree days 1357 918  
Since 1 June cooling degree days 1287 868  
Growing Degree Days 34 (Base 50)    
Moisture  
Dew Point 46 °F    
Average Humidity 30    
Maximum Humidity 44    
Minimum Humidity 16    
Precipitation  
Precipitation 0.00 in 0.02 in 1.42 in (1945)
Month to date precipitation 0.03 0.38  
Year to date precipitation 7.31 10.20  
Snow  
Snow 0.00 in 0.00 in - ()
Month to date snowfall 0.0 0.0  
Since 1 July snowfall 0.0 0.0  
Snow Depth 0.00 in    
Sea Level Pressure  
Sea Level Pressure 29.89 in    
Wind  
Wind Speed 7 mph (SE)    
Max Wind Speed 14 mph    
Max Gust Speed 17 mph    
Visibility 10 miles    
Events      
T = Trace of Precipitation, MM = Missing Value Source: NWS Daily Summary

Daily Weather History Graph

Daily Weather History Graph

Search for Another Location

Airport or City:

Trip Planner

Search our weather history database for the weather conditions in past years. The results will help you decide how hot, cold, wet, or windy it might be!

Date:

Astronomy

Aug. 19, 2013 Rise Set
Actual Time 6:42 AM MDT 8:19 PM MDT
Civil Twilight 6:13 AM MDT 8:48 PM MDT
Nautical Twilight 5:38 AM MDT 9:23 PM MDT
Astronomical Twilight 5:00 AM MDT 10:01 PM MDT
Moon 7:13 PM MDT (8/19) 5:05 AM MDT (8/19)
Length of Visible Light 14h 35m
Length of Day
13h 37m
Waxing Gibbous, 97% of the Moon is Illuminated
Aug 19
Waxing Gibbous
Aug 20
Full
Aug 28
Last Quarter
Sep 5
New
Sep 12
First Quarter

Hourly Weather History & Observations

Time (MDT) Temp. Heat Index Dew Point Humidity Pressure Visibility Wind Dir Wind Speed Gust Speed Precip Events Conditions
12:53 AM 78.1 °F - 45.0 °F 31% 29.88 in 10.0 mi SSE 6.9 mph - N/A   Scattered Clouds
1:53 AM 75.9 °F - 45.0 °F 33% 29.88 in 10.0 mi Calm Calm - N/A   Scattered Clouds
2:53 AM 73.9 °F - 46.9 °F 38% 29.90 in 10.0 mi Calm Calm - N/A   Scattered Clouds
3:53 AM 75.0 °F - 46.0 °F 36% 29.89 in 10.0 mi ESE 10.4 mph - N/A   Scattered Clouds
4:53 AM 73.9 °F - 46.9 °F 38% 29.90 in 10.0 mi SSE 6.9 mph - N/A   Scattered Clouds
5:53 AM 73.0 °F - 50.0 °F 44% 29.89 in 10.0 mi SSE 8.1 mph - N/A   Scattered Clouds
6:53 AM 73.0 °F - 46.0 °F 38% 29.92 in 10.0 mi ESE 6.9 mph - N/A   Scattered Clouds
7:53 AM 77.0 °F - 46.0 °F 33% 29.94 in 10.0 mi SE 4.6 mph - N/A   Scattered Clouds
8:53 AM 82.0 °F - 48.0 °F 30% 29.95 in 10.0 mi SSE 6.9 mph - N/A   Scattered Clouds
9:53 AM 86.0 °F - 46.9 °F 26% 29.95 in 10.0 mi SW 4.6 mph - N/A   Scattered Clouds
10:53 AM 89.1 °F - 46.9 °F 23% 29.94 in 10.0 mi West 5.8 mph - N/A   Scattered Clouds
11:53 AM 91.0 °F - 45.0 °F 20% 29.94 in 10.0 mi Variable 6.9 mph - N/A   Scattered Clouds
12:53 PM 91.0 °F - 45.0 °F 20% 29.92 in 10.0 mi Calm Calm - N/A   Scattered Clouds
1:53 PM 93.9 °F - 45.0 °F 18% 29.90 in 10.0 mi WNW 13.8 mph - N/A   Scattered Clouds
2:53 PM 95.0 °F - 46.0 °F 19% 29.88 in 10.0 mi NNW 10.4 mph - N/A   Scattered Clouds
3:53 PM 91.9 °F - 43.0 °F 18% 29.86 in 10.0 mi NNW 5.8 mph - N/A   Mostly Cloudy
4:53 PM 96.1 °F - 42.1 °F 15% 29.84 in 10.0 mi NNW 6.9 mph - N/A   Mostly Cloudy
5:53 PM 95.0 °F - 41.0 °F 15% 29.85 in 10.0 mi Variable 3.5 mph - N/A   Mostly Cloudy
6:53 PM 91.9 °F - 44.1 °F 19% 29.85 in 10.0 mi ESE 12.7 mph - N/A   Mostly Cloudy
7:53 PM 88.0 °F - 43.0 °F 21% 29.85 in 10.0 mi ESE 12.7 mph - N/A   Mostly Cloudy
8:53 PM 86.0 °F - 46.9 °F 26% 29.87 in 10.0 mi SSE 19.6 mph 26.5 mph N/A   Mostly Cloudy
9:53 PM 82.0 °F 81.2 °F 53.1 °F 37% 29.88 in 10.0 mi South 17.3 mph 20.7 mph N/A   Mostly Cloudy
10:53 PM 81.0 °F - 52.0 °F 36% 29.88 in 10.0 mi SE 10.4 mph - N/A   Mostly Cloudy
11:53 PM 80.1 °F - 51.1 °F 36% 29.86 in 10.0 mi SE 8.1 mph - N/A   Mostly Cloudy